Stations météo

réclame
Mon MeteoGroup
Lyon/Satolas, France (7481): Température de l'air & dewpoint: 07.08.2020 07:00:00 - 13.08.2020 07:00:00 (CEST)Lyon/Satolas, France (7481): Température de l'air 5cm: 07.08.2020 07:00:00 - 13.08.2020 07:00:00 (CEST)Lyon/Satolas, France (7481): Température de l'air -20cm & Température de l'air -100cm: 07.08.2020 07:00:00 - 13.08.2020 07:00:00 (CEST)Lyon/Satolas, France (7481): Vitesse du vent & gusts: 07.08.2020 07:00:00 - 13.08.2020 07:00:00 (CEST)Lyon/Satolas, France (7481): Direction du vent: 07.08.2020 07:00:00 - 13.08.2020 07:00:00 (CEST)Lyon/Satolas, France (7481): reduced air pressure: 07.08.2020 07:00:00 - 13.08.2020 07:00:00 (CEST)Lyon/Satolas, France (7481): visibility: 07.08.2020 07:00:00 - 13.08.2020 07:00:00 (CEST)Lyon/Satolas, France (7481): Quantités de précipitations: 07.08.2020 07:00:00 - 13.08.2020 07:00:00 (CEST)
Date & Time tt [°C] td [°C] tt 5cm [°C] tt -20cm [°C] tt -100cm [°C] ff [km/h] ff [knt] fx [km/h] fx [knt] dd ppp [hPa] vv [km] rr [mm]
13.08.2020 07:00:00 - - - - - - - - - - - - -
13.08.2020 06:00:00 - - - - - - - - - - - - -
13.08.2020 05:00:00 - - - - - - - - - - - - -
13.08.2020 04:00:00 - - - - - - - - - - - - -
13.08.2020 03:00:00 - - - - - - - - - - - - -
13.08.2020 02:00:00 - - - - - - - - - - - - -
13.08.2020 01:00:00 - - - - - - - - - - - - -
13.08.2020 00:00:00 - - - - - - - - - - - - -
12.08.2020 23:00:00 - - - - - - - - - - - - -
12.08.2020 22:00:00 - - - - - - - - - - - - -
12.08.2020 21:00:00 - - - - - - - - - - - - -
12.08.2020 20:00:00 - - - - - - - - - - - - -
12.08.2020 19:00:00 - - - - - - - - - - - - -
12.08.2020 18:00:00 - - - - - - - - - - - - -
12.08.2020 17:00:00 - - - - - - - - - - - - -
12.08.2020 16:00:00 - - - - - - - - - - - - -
12.08.2020 15:00:00 - - - - - - - - - - - - -
12.08.2020 14:00:00 - - - - - - - - - - - - -
12.08.2020 13:00:00 - - - - - - - - - - - - -
12.08.2020 12:00:00 - - - - - - - - - - - - -
12.08.2020 11:00:00 - - - - - - - - - - - - -
12.08.2020 10:00:00 - - - - - - - - - - - - -
12.08.2020 09:00:00 - - - - - - - - - - - - -
12.08.2020 08:00:00 - - - - - - - - - - - - -
12.08.2020 07:00:00 - - - - - - - - - - - - -
12.08.2020 06:00:00 - - - - - - - - - - - - -
12.08.2020 05:00:00 - - - - - - - - - - - - -
12.08.2020 04:00:00 - - - - - - - - - - - - -
12.08.2020 03:00:00 - - - - - - - - - - - - -
12.08.2020 02:00:00 - - - - - - - - - - - - -
12.08.2020 01:00:00 - - - - - - - - - - - - -
12.08.2020 00:00:00 - - - - - - - - - - - - -
11.08.2020 23:00:00 - - - - - - - - - - - - -
11.08.2020 22:00:00 - - - - - - - - - - - - -
11.08.2020 21:00:00 - - - - - - - - - - - - -
11.08.2020 20:00:00 - - - - - - - - - - - - -
11.08.2020 19:00:00 - - - - - - - - - - - - -
11.08.2020 18:00:00 - - - - - - - - - - - - -
11.08.2020 17:00:00 - - - - - - - - - - - - -
11.08.2020 16:00:00 - - - - - - - - - - - - -
11.08.2020 15:00:00 - - - - - - - - - - - - -
11.08.2020 14:00:00 - - - - - - - - - - - - -
11.08.2020 13:00:00 - - - - - - - - - - - - -
11.08.2020 12:00:00 - - - - - - - - - - - - -
11.08.2020 11:00:00 - - - - - - - - - - - - -
11.08.2020 10:00:00 - - - - - - - - - - - - -
11.08.2020 09:00:00 - - - - - - - - - - - - -
11.08.2020 08:00:00 - - - - - - - - - - - - -
11.08.2020 07:00:00 - - - - - - - - - - - - -
11.08.2020 06:00:00 - - - - - - - - - - - - -
11.08.2020 05:00:00 - - - - - - - - - - - - -
11.08.2020 04:00:00 - - - - - - - - - - - - -
11.08.2020 03:00:00 - - - - - - - - - - - - -
11.08.2020 02:00:00 - - - - - - - - - - - - -
11.08.2020 01:00:00 - - - - - - - - - - - - -
11.08.2020 00:00:00 - - - - - - - - - - - - -
10.08.2020 23:00:00 - - - - - - - - - - - - -
10.08.2020 22:00:00 - - - - - - - - - - - - -
10.08.2020 21:00:00 - - - - - - - - - - - - -
10.08.2020 20:00:00 - - - - - - - - - - - - -
10.08.2020 19:00:00 - - - - - - - - - - - - -
10.08.2020 18:00:00 - - - - - - - - - - - - -
10.08.2020 17:00:00 - - - - - - - - - - - - -
10.08.2020 16:00:00 - - - - - - - - - - - - -
10.08.2020 15:00:00 - - - - - - - - - - - - -
10.08.2020 14:00:00 - - - - - - - - - - - - -
10.08.2020 13:00:00 - - - - - - - - - - - - -
10.08.2020 12:00:00 - - - - - - - - - - - - -
10.08.2020 11:00:00 - - - - - - - - - - - - -
10.08.2020 10:00:00 - - - - - - - - - - - - -
10.08.2020 09:00:00 - - - - - - - - - - - - -
10.08.2020 08:00:00 23,2 14,2 21,2 25,9 23,5 8 4 11 6 SE 1013,4 50 0,0
10.08.2020 07:00:00 22,6 14,7 18,5 26,2 23,5 9 5 12 7 S 1013,3 50 0,0
10.08.2020 06:00:00 22,9 15,0 19,6 26,4 23,5 3 1 14 8 WNW 1013,2 50 0,0
10.08.2020 05:00:00 23,5 15,0 21,7 26,7 23,5 13 7 16 9 SE 1013,0 50 0,0
10.08.2020 04:00:00 24,6 14,4 23,3 27,0 23,5 11 6 17 9 SSE 1013,3 50 0,0
10.08.2020 03:00:00 26,1 13,9 23,1 27,2 23,5 9 5 14 8 SSE 1012,9 50 0,0
10.08.2020 02:00:00 27,1 13,8 24,7 27,5 23,5 3 2 10 5 SSE 1013,0 50 0,0
10.08.2020 01:00:00 28,0 14,6 25,8 27,7 23,5 8 4 11 6 SE 1013,4 60 0,0
10.08.2020 00:00:00 28,3 14,2 25,6 28,0 23,5 9 5 16 8 S 1013,4 60 0,0
09.08.2020 23:00:00 28,3 14,5 26,6 28,2 23,4 9 5 15 8 ESE 1013,3 60 0,0
09.08.2020 22:00:00 29,8 13,1 27,1 28,5 23,5 6 3 20 11 S 1013,1 60 0,0
09.08.2020 21:00:00 29,8 14,7 27,9 28,7 23,4 13 7 26 14 S 1012,8 60 0,0
09.08.2020 20:00:00 30,9 14,5 30,8 29,0 23,5 5 3 42 23 WNW 1012,1 60 0,0
09.08.2020 19:00:00 31,7 14,4 31,9 29,1 23,4 20 11 38 21 W 1012,6 60 0,0
09.08.2020 18:00:00 33,3 14,4 33,5 29,0 23,4 28 15 43 23 WSW 1012,7 50 0,0
09.08.2020 17:00:00 35,6 13,7 38,3 28,7 23,4 11 6 24 13 WNW 1012,5 50 0,0
09.08.2020 16:00:00 35,7 12,0 41,1 28,0 23,4 7 4 20 11 E 1012,6 50 0,0
09.08.2020 15:00:00 35,0 13,8 40,6 27,2 23,4 11 6 23 13 NE 1012,9 50 0,0
09.08.2020 14:00:00 34,4 14,8 39,5 26,5 23,4 7 4 21 11 W 1013,9 50 0,0
09.08.2020 13:00:00 33,2 15,2 38,1 25,8 23,4 7 4 22 12 SSW 1014,6 50 0,0
09.08.2020 12:00:00 31,5 15,0 37,3 25,2 23,4 9 5 20 11 S 1015,4 50 0,0
09.08.2020 11:00:00 28,9 15,4 33,5 24,9 23,4 5 3 16 8 W 1016,2 50 0,0
09.08.2020 10:00:00 27,4 14,8 31,9 24,8 23,4 8 5 17 9 SE 1016,5 50 0,0
09.08.2020 09:00:00 25,2 15,8 27,4 24,9 23,3 6 4 11 6 SW 1017,0 50 0,0
09.08.2020 08:00:00 22,9 14,2 20,2 25,1 23,3 0 0 11 6 N 1017,1 50 0,0
09.08.2020 07:00:00 21,0 14,2 18,2 25,4 23,3 7 4 16 9 SSE 1017,2 50 0,0
09.08.2020 06:00:00 22,9 12,5 20,2 25,6 23,3 9 5 14 7 SSE 1016,7 50 0,0
09.08.2020 05:00:00 22,9 12,8 19,5 25,9 23,3 9 5 16 9 SSE 1016,7 50 0,0
09.08.2020 04:00:00 23,1 13,0 19,5 26,2 23,3 14 7 19 10 SE 1016,4 50 0,0
09.08.2020 03:00:00 23,8 12,4 19,1 26,5 23,3 13 7 17 9 SSE 1016,2 60 0,0
09.08.2020 02:00:00 25,1 11,3 21,5 26,9 23,3 6 4 14 7 S 1016,1 60 0,0
09.08.2020 01:00:00 26,0 12,8 20,3 27,2 23,3 8 5 21 12 SSE 1015,8 60 0,0
09.08.2020 00:00:00 25,9 13,1 20,0 27,6 23,2 9 5 11 6 SW 1015,7 60 0,0
08.08.2020 23:00:00 26,8 12,8 20,2 28,0 23,3 3 2 9 5 WSW 1015,4 60 0,0
08.08.2020 22:00:00 28,3 12,6 21,8 28,3 23,2 2 1 18 10 SSW 1015,2 60 0,0
08.08.2020 21:00:00 31,1 12,5 26,7 28,6 23,3 8 5 18 10 N 1014,9 60 0,0
08.08.2020 20:00:00 33,8 12,2 36,5 28,7 23,3 10 5 19 11 NNE 1014,4 60 0,0
08.08.2020 19:00:00 35,4 8,3 39,8 28,6 23,3 8 5 17 9 NE 1014,3 70 0,0
08.08.2020 18:00:00 35,4 9,7 41,0 28,3 23,3 10 5 25 13 NNE 1014,6 70 0,0
08.08.2020 17:00:00 35,4 10,4 41,4 27,7 23,2 12 6 23 12 N 1015,1 70 0,0
08.08.2020 16:00:00 34,7 10,5 41,0 27,1 23,2 13 7 26 14 N 1015,8 60 0,0
08.08.2020 15:00:00 33,8 11,0 40,1 26,3 23,2 12 7 24 13 NNW 1016,5 60 0,0
08.08.2020 14:00:00 33,3 11,2 40,0 25,6 23,2 6 3 18 10 N 1016,9 60 0,0
08.08.2020 13:00:00 32,0 11,7 37,7 24,9 23,2 8 4 16 9 N 1017,4 35 0,0
08.08.2020 12:00:00 30,6 11,5 35,8 24,3 23,2 8 4 17 9 NNW 1018,1 70 0,0
08.08.2020 11:00:00 28,4 13,1 31,9 24,0 23,2 5 3 16 9 SW 1018,5 80 0,0
08.08.2020 10:00:00 27,0 11,1 30,0 23,9 23,2 8 4 19 10 SSE 1018,9 80 0,0
08.08.2020 09:00:00 24,2 11,2 24,8 24,0 23,2 12 7 21 11 ESE 1019,3 80 0,0
08.08.2020 08:00:00 22,9 11,0 20,9 24,3 23,2 9 5 19 11 SE 1019,1 80 0,0
08.08.2020 07:00:00 20,6 11,5 17,8 24,5 23,2 11 6 14 8 SE 1019,0 80 0,0
08.08.2020 06:00:00 20,7 11,6 16,6 24,8 23,2 6 4 14 8 ESE 1018,7 80 0,0
08.08.2020 05:00:00 22,2 11,9 20,0 25,2 23,2 10 6 16 9 SSE 1018,4 60 0,0
08.08.2020 04:00:00 23,0 11,7 20,7 25,5 23,2 8 5 16 9 SSE 1018,5 60 0,0
08.08.2020 03:00:00 24,6 11,5 22,6 25,8 23,1 6 3 18 10 SSE 1018,3 60 0,0
08.08.2020 02:00:00 25,4 12,3 21,7 26,0 23,0 11 6 18 10 S 1017,8 60 0,0
08.08.2020 01:00:00 25,5 12,0 19,2 26,5 23,1 9 5 26 14 SSW 1017,5 60 0,0
08.08.2020 00:00:00 24,9 14,4 19,5 26,9 23,2 0 0 9 5 N 1017,1 60 0,0
07.08.2020 23:00:00 26,5 12,5 20,6 27,2 23,1 5 3 21 11 NNE 1016,4 60 0,0
07.08.2020 22:00:00 27,9 13,0 21,5 27,6 23,1 3 1 10 5 NNE 1015,9 60 0,0
07.08.2020 21:00:00 31,1 12,0 24,1 27,8 23,1 6 4 15 8 NE 1015,0 80 0,0
07.08.2020 20:00:00 33,6 9,6 36,3 28,0 23,1 6 3 14 7 NNE 1014,5 80 0,0
07.08.2020 19:00:00 34,4 3,0 38,6 27,9 23,2 6 4 14 7 ENE 1014,6 60 0,0
07.08.2020 18:00:00 34,5 6,7 41,5 27,5 23,1 9 5 19 10 N 1015,0 60 0,0
07.08.2020 17:00:00 34,4 7,4 41,7 27,1 23,2 5 3 18 10 W 1015,3 60 0,0
07.08.2020 16:00:00 33,5 12,5 39,4 26,3 23,1 6 3 17 9 NNW 1015,8 60 0,0
07.08.2020 15:00:00 32,4 13,6 39,2 25,6 23,2 7 4 22 12 W 1016,3 60 0,0
07.08.2020 14:00:00 31,4 13,6 37,8 24,8 23,2 4 2 19 10 E 1016,7 60 0,0
07.08.2020 13:00:00 30,1 13,8 36,5 24,1 23,1 4 2 16 9 W 1017,2 60 0,0
07.08.2020 12:00:00 29,0 13,2 34,5 23,5 23,1 4 2 17 9 S 1017,7 60 0,0
07.08.2020 11:00:00 26,6 13,0 30,7 23,1 23,2 9 5 19 10 ESE 1018,3 60 0,0
07.08.2020 10:00:00 24,5 12,4 31,0 23,0 23,1 6 4 14 7 ESE 1018,5 60 0,0
07.08.2020 09:00:00 21,8 11,8 25,6 23,1 23,1 6 3 9 5 E 1018,7 60 0,0
07.08.2020 08:00:00 20,1 11,8 19,3 23,2 23,1 2 1 10 6 NW 1018,6 60 0,0
07.08.2020 07:00:00 18,6 13,2 16,8 23,5 23,1 5 3 17 9 SE 1018,6 80 0,0

tt = Température de l'air
td = dewpoint
tt 5cm = Température de l'air 5cm
tt -20cm = Température de l'air -20cm
tt -100cm = Température de l'air -100cm
ff = Vitesse du vent
fx = gusts
dd = Direction du vent
ppp = reduced air pressure
vv = visibility
rr = Quantités de précipitations

stations d'obs. à proximité